Location: Unspecified
(0.0000°N, 0.0000°E)
Time: 17:06:39
(UTC+00:00)

AO-73 - Pass Details

Date: 29 September 2021
Orbit: 580 x 662 km, 97.6° (Epoch: 22 October)

Event Time Altitude Azimuth Distance (km) Brightness Sun altitude
Rises 03:20:08 0° 47° (NE) 2,784 ? -37.5°
Reaches altitude 10° 03:23:26 10° 76° (ENE) 1,889 ? -36.7°
Maximum altitude 03:25:13 13° 102° (ESE) 1,728 ? -36.3°
Drops below altitude 10° 03:26:59 10° 128° (SE) 1,897 ? -35.8°
Sets 03:30:18 0° 157° (SSE) 2,809 ? -35.0°
